Location: Most
(50.5133°N, 13.6207°E)
Time: 16:59:39
(UTC+02:00)

Nauka - Pass Details

Date: 23 September 2021
Orbit: 417 x 423 km, 51.6° (Epoch: 26 October)

Event Time Altitude Azimuth Distance (km) Brightness Sun altitude
Rises 20:06:03 0° 256° (WSW) 2,360 ? -11.1°
Reaches altitude 10° 20:08:08 10° 257° (WSW) 1,498 ? -11.4°
Maximum altitude 20:11:30 87° 350° (N) 425 ? -11.9°
Enters shadow 20:13:53 18° 76° (ENE) 1,101 ? -12.3°
